Weather in Boroduli

Russia / Udmurt Republic     57°26′18″N   54°09′42″E
temp.,
°C
wind,
m/s
gust,
m/s
humid.,
%
clouds,
%
prec.,
mm/h
press.,
hPa
HPBL,
m
22 october, fri
fri2201:00+1sw613100100 0.3 996372
04:00+3sw512100100 0.4 996259
07:00+3ssw410100100 0.0 997177
10:00+5ssw614100100 0.3 996329
13:00+6ssw81699100 0.2 994569
16:00+8sw81492100 0.2 994762
19:00+8sw71592100 0.0 995826
22:00+8sw81691100 0.1 996741
23 october, sat
sat2301:00+8wsw81488100 0.1 997741
04:00+9wsw9157223 0.2 9991155
07:00+5wsw7148760 0.0 1002690
10:00+6wsw81278100 0.0 10031124
13:00+7wsw7117076 0.0 10051263
16:00+7wsw6117297 0.1 1006918
19:00+4sw499043 0.1 1008229
22:00+3ssw399215 0.1 1009202
24 october, sun
sun2401:00+3ssw37925 0.0 1009124
04:00+3ssw3889100 0.0 1008188
07:00+3s4989100 0.0 1006267
10:00+5ssw478536 0.1 1005429
13:00+3wsw599597 1.9 1006532
16:00+5wsw71183100 2.3 1006996
19:00+4w71178100 0.1 1009895
22:00+3wsw598676 0.1 1010729
25 october, mon
mon2501:00+3wsw3788100 0.1 1011563
04:00+3wsw468396 0.1 1012441
07:00+2wsw3682100 0.0 1012487
10:00+3w5778100 0.1 1012708
13:00+4w4672100 0.1 1012946
16:00+1nnw71196100 0.8 1012584
19:000nnw61082100 0.4 1015944
22:00−2nnw6118661 0.4 1017607
26 october, tue
tue2601:00−2nw510825 0.0 1019493
04:00−3nw598810 0.0 1021368
07:00−4nw47907 0.0 1021311
10:00−2wnw357748 0.0 1022481
13:000w45605 0.0 1021829
16:000sw356482 0.0 1020168
19:00−1sw497177 0.0 1020360
22:00−1ssw5107283 0.0 1018364